Flag for U.S.A. Weather past 2 weeks in Lafayette, Indiana, U.S.A.

Now
43 °F

Mostly cloudy.


Feels Like: 43 °F
Forecast: 47 / 63 °F
Wind: No wind

Location: Purdue University Airport

Current Time: Oct 24, 2014 at 3:06:24 AM

Latest Report: Oct 24, 2014 at 1:54 AM


Visibility: 10 mi

Pressure: 30.10 "Hg

Humidity: 93%

Dew point: 41 °F

Location of LafayetteLocation

Historic Weather in Lafayette — Graph

°F

Lafayette temperature yesterday

Maximum temperature yesterday: 57 °F (at 3:54 PM)
Minimum temperature yesterday: 34 °F (at 7:54 AM)
Average temperature yesterday: 46 °F

Past Weeks' High & Low Weather Summary

 TemperatureHumidityPressure
High73 °F (Oct 13, 1:54 PM)100% (Oct 9, 10:54 PM)30.37 "Hg (Oct 9, 10:54 PM)
Low33 °F (Oct 19, 7:54 AM)46% (Oct 11, 2:54 PM)29.48 "Hg (Oct 14, 7:54 AM)
Average52 °F81%29.97 "Hg
* Reported Oct 9 12:54 PM — Oct 24 12:54 AM, Lafayette, Weather by CustomWeather, © 2014

Note: Actual official high and low records may vary slightly from our data, if they occured in-between our weather recording intervals... More about our weather records

Advertising

Lafayette weather history for previous 24 hours

 ConditionsComfort  
Time TempWeatherWind HumidityBarometerVisibility
12:54 AM
Oct 24
42 °FPassing clouds.No wind92%30.11 "Hg10 mi
11:54 PM
Oct 23
42 °FClear.No wind92%30.11 "Hg10 mi
10:54 PM45 °FClear.No wind86%30.11 "Hg10 mi
9:54 PM46 °FClear.No wind86%30.11 "Hg10 mi
8:54 PM48 °FClear.No wind83%30.12 "Hg10 mi
7:54 PM50 °FSunny.3 mph77%30.13 "Hg10 mi
6:54 PM52 °FSunny.No wind72%30.12 "Hg6 mi
5:54 PM56 °FSunny.No wind58%30.13 "Hg10 mi
4:54 PM56 °FSunny.3 mph60%30.14 "Hg10 mi
3:54 PM57 °FSunny.No wind53%30.15 "Hg10 mi
2:54 PM56 °FSunny.5 mph53%30.17 "Hg10 mi
1:54 PM56 °FSunny.6 mph58%30.20 "Hg10 mi
12:54 PM55 °FSunny.8 mph59%30.23 "Hg10 mi
11:54 AM53 °FSunny.8 mph69%30.24 "Hg10 mi
10:54 AM48 °FSunny.6 mph83%30.26 "Hg8 mi
9:54 AM43 °FFog.No wind93%30.27 "Hg5 mi
8:54 AM37 °FFog.No wind96%30.26 "Hg5 mi
7:54 AM34 °FFog.3 mph100%30.26 "Hg5 mi
6:54 AM36 °FFog.No wind97%30.26 "Hg3 mi
5:54 AM37 °FFog.3 mph96%30.26 "Hg6 mi
4:54 AM38 °FClear.5 mph93%30.25 "Hg7 mi
3:54 AM38 °FClear.5 mph93%30.26 "Hg9 mi
Weather by CustomWeather, © 2014

See weather overviewHow to use our weather pages